Index of /20260420/WXO-DD/model_gdps/15km/12/081
Name Last modified Size Description
Parent Directory -
20260420T12Z_MSC_GDPS_AbsoluteVorticity_IsbL-0200_LatLon0.15_PT081H.grib2 2026-04-20 16:22 1.5M
20260420T12Z_MSC_GDPS_AbsoluteVorticity_IsbL-0250_LatLon0.15_PT081H.grib2 2026-04-20 16:22 1.3M
20260420T12Z_MSC_GDPS_AbsoluteVorticity_IsbL-0500_LatLon0.15_PT081H.grib2 2026-04-20 16:22 1.5M
20260420T12Z_MSC_GDPS_AbsoluteVorticity_IsbL-0700_LatLon0.15_PT081H.grib2 2026-04-20 16:22 1.3M
20260420T12Z_MSC_GDPS_AbsoluteVorticity_IsbL-0850_LatLon0.15_PT081H.grib2 2026-04-20 16:22 1.6M
20260420T12Z_MSC_GDPS_AirTemp_AGL-120m_LatLon0.15_PT081H.grib2 2026-04-20 16:22 910K
20260420T12Z_MSC_GDPS_AirTemp_AGL-2m_LatLon0.15_PT081H.grib2 2026-04-20 16:22 1.0M
20260420T12Z_MSC_GDPS_AirTemp_AGL-40m_LatLon0.15_PT081H.grib2 2026-04-20 16:22 932K
20260420T12Z_MSC_GDPS_AirTemp_AGL-80m_LatLon0.15_PT081H.grib2 2026-04-20 16:22 922K
20260420T12Z_MSC_GDPS_AirTemp_IsbL-0001_LatLon0.15_PT081H.grib2 2026-04-20 16:22 703K
20260420T12Z_MSC_GDPS_AirTemp_IsbL-0005_LatLon0.15_PT081H.grib2 2026-04-20 16:22 684K
20260420T12Z_MSC_GDPS_AirTemp_IsbL-0010_LatLon0.15_PT081H.grib2 2026-04-20 16:22 758K
20260420T12Z_MSC_GDPS_AirTemp_IsbL-0020_LatLon0.15_PT081H.grib2 2026-04-20 16:22 700K
20260420T12Z_MSC_GDPS_AirTemp_IsbL-0030_LatLon0.15_PT081H.grib2 2026-04-20 16:22 753K
20260420T12Z_MSC_GDPS_AirTemp_IsbL-0050_LatLon0.15_PT081H.grib2 2026-04-20 16:22 811K
20260420T12Z_MSC_GDPS_AirTemp_IsbL-0100_LatLon0.15_PT081H.grib2 2026-04-20 16:22 959K
20260420T12Z_MSC_GDPS_AirTemp_IsbL-0150_LatLon0.15_PT081H.grib2 2026-04-20 16:22 1.0M
20260420T12Z_MSC_GDPS_AirTemp_IsbL-0175_LatLon0.15_PT081H.grib2 2026-04-20 16:22 972K
20260420T12Z_MSC_GDPS_AirTemp_IsbL-0200_LatLon0.15_PT081H.grib2 2026-04-20 16:22 1.0M
20260420T12Z_MSC_GDPS_AirTemp_IsbL-0225_LatLon0.15_PT081H.grib2 2026-04-20 16:22 1.0M
20260420T12Z_MSC_GDPS_AirTemp_IsbL-0250_LatLon0.15_PT081H.grib2 2026-04-20 16:22 1.0M
20260420T12Z_MSC_GDPS_AirTemp_IsbL-0275_LatLon0.15_PT081H.grib2 2026-04-20 16:22 1.0M
20260420T12Z_MSC_GDPS_AirTemp_IsbL-0300_LatLon0.15_PT081H.grib2 2026-04-20 16:22 952K
20260420T12Z_MSC_GDPS_AirTemp_IsbL-0350_LatLon0.15_PT081H.grib2 2026-04-20 16:22 931K
20260420T12Z_MSC_GDPS_AirTemp_IsbL-0400_LatLon0.15_PT081H.grib2 2026-04-20 16:22 942K
20260420T12Z_MSC_GDPS_AirTemp_IsbL-0450_LatLon0.15_PT081H.grib2 2026-04-20 16:22 964K
20260420T12Z_MSC_GDPS_AirTemp_IsbL-0500_LatLon0.15_PT081H.grib2 2026-04-20 16:22 1.0M
20260420T12Z_MSC_GDPS_AirTemp_IsbL-0550_LatLon0.15_PT081H.grib2 2026-04-20 16:22 809K
20260420T12Z_MSC_GDPS_AirTemp_IsbL-0600_LatLon0.15_PT081H.grib2 2026-04-20 16:22 897K
20260420T12Z_MSC_GDPS_AirTemp_IsbL-0650_LatLon0.15_PT081H.grib2 2026-04-20 16:22 923K
20260420T12Z_MSC_GDPS_AirTemp_IsbL-0700_LatLon0.15_PT081H.grib2 2026-04-20 16:22 953K
20260420T12Z_MSC_GDPS_AirTemp_IsbL-0750_LatLon0.15_PT081H.grib2 2026-04-20 16:22 1.0M
20260420T12Z_MSC_GDPS_AirTemp_IsbL-0800_LatLon0.15_PT081H.grib2 2026-04-20 16:22 1.1M
20260420T12Z_MSC_GDPS_AirTemp_IsbL-0850_LatLon0.15_PT081H.grib2 2026-04-20 16:22 1.1M
20260420T12Z_MSC_GDPS_AirTemp_IsbL-0875_LatLon0.15_PT081H.grib2 2026-04-20 16:22 1.1M
20260420T12Z_MSC_GDPS_AirTemp_IsbL-0900_LatLon0.15_PT081H.grib2 2026-04-20 16:22 1.1M
20260420T12Z_MSC_GDPS_AirTemp_IsbL-0925_LatLon0.15_PT081H.grib2 2026-04-20 16:22 1.1M
20260420T12Z_MSC_GDPS_AirTemp_IsbL-0950_LatLon0.15_PT081H.grib2 2026-04-20 16:22 1.1M
20260420T12Z_MSC_GDPS_AirTemp_IsbL-0970_LatLon0.15_PT081H.grib2 2026-04-20 16:22 1.1M
20260420T12Z_MSC_GDPS_AirTemp_IsbL-0985_LatLon0.15_PT081H.grib2 2026-04-20 16:22 1.1M
20260420T12Z_MSC_GDPS_AirTemp_IsbL-1000_LatLon0.15_PT081H.grib2 2026-04-20 16:22 1.1M
20260420T12Z_MSC_GDPS_AirTemp_IsbL-1015_LatLon0.15_PT081H.grib2 2026-04-20 16:22 1.1M
20260420T12Z_MSC_GDPS_Albedo_Sfc_LatLon0.15_PT081H.grib2 2026-04-20 16:22 247K
20260420T12Z_MSC_GDPS_CAPE_Sfc_LatLon0.15_PT081H.grib2 2026-04-20 16:22 3.8M
20260420T12Z_MSC_GDPS_CIN_Sfc_LatLon0.15_PT081H.grib2 2026-04-20 16:22 2.8M
20260420T12Z_MSC_GDPS_CloudWater_EAtm_LatLon0.15_PT081H.grib2 2026-04-20 16:22 531K
20260420T12Z_MSC_GDPS_ConvectivePrecip-Accum_Sfc_LatLon0.15_PT081H.grib2 2026-04-20 16:22 3.1M
20260420T12Z_MSC_GDPS_DewPointDepression_AGL-2m_LatLon0.15_PT081H.grib2 2026-04-20 16:22 750K
20260420T12Z_MSC_GDPS_DewPointDepression_IsbL-0010_LatLon0.15_PT081H.grib2 2026-04-20 16:22 26K
20260420T12Z_MSC_GDPS_DewPointDepression_IsbL-0020_LatLon0.15_PT081H.grib2 2026-04-20 16:22 72K
20260420T12Z_MSC_GDPS_DewPointDepression_IsbL-0030_LatLon0.15_PT081H.grib2 2026-04-20 16:22 78K
20260420T12Z_MSC_GDPS_DewPointDepression_IsbL-0050_LatLon0.15_PT081H.grib2 2026-04-20 16:22 352K
20260420T12Z_MSC_GDPS_DewPointDepression_IsbL-0100_LatLon0.15_PT081H.grib2 2026-04-20 16:22 398K
20260420T12Z_MSC_GDPS_DewPointDepression_IsbL-0150_LatLon0.15_PT081H.grib2 2026-04-20 16:22 468K
20260420T12Z_MSC_GDPS_DewPointDepression_IsbL-0175_LatLon0.15_PT081H.grib2 2026-04-20 16:22 568K
20260420T12Z_MSC_GDPS_DewPointDepression_IsbL-0200_LatLon0.15_PT081H.grib2 2026-04-20 16:22 661K
20260420T12Z_MSC_GDPS_DewPointDepression_IsbL-0225_LatLon0.15_PT081H.grib2 2026-04-20 16:22 769K
20260420T12Z_MSC_GDPS_DewPointDepression_IsbL-0250_LatLon0.15_PT081H.grib2 2026-04-20 16:22 861K
20260420T12Z_MSC_GDPS_DewPointDepression_IsbL-0275_LatLon0.15_PT081H.grib2 2026-04-20 16:22 881K
20260420T12Z_MSC_GDPS_DewPointDepression_IsbL-0300_LatLon0.15_PT081H.grib2 2026-04-20 16:22 928K
20260420T12Z_MSC_GDPS_DewPointDepression_IsbL-0350_LatLon0.15_PT081H.grib2 2026-04-20 16:22 963K
20260420T12Z_MSC_GDPS_DewPointDepression_IsbL-0400_LatLon0.15_PT081H.grib2 2026-04-20 16:22 1.0M
20260420T12Z_MSC_GDPS_DewPointDepression_IsbL-0450_LatLon0.15_PT081H.grib2 2026-04-20 16:22 1.0M
20260420T12Z_MSC_GDPS_DewPointDepression_IsbL-0500_LatLon0.15_PT081H.grib2 2026-04-20 16:22 1.0M
20260420T12Z_MSC_GDPS_DewPointDepression_IsbL-0550_LatLon0.15_PT081H.grib2 2026-04-20 16:22 1.0M
20260420T12Z_MSC_GDPS_DewPointDepression_IsbL-0600_LatLon0.15_PT081H.grib2 2026-04-20 16:22 1.1M
20260420T12Z_MSC_GDPS_DewPointDepression_IsbL-0650_LatLon0.15_PT081H.grib2 2026-04-20 16:22 1.1M
20260420T12Z_MSC_GDPS_DewPointDepression_IsbL-0700_LatLon0.15_PT081H.grib2 2026-04-20 16:22 1.1M
20260420T12Z_MSC_GDPS_DewPointDepression_IsbL-0750_LatLon0.15_PT081H.grib2 2026-04-20 16:22 1.1M
20260420T12Z_MSC_GDPS_DewPointDepression_IsbL-0800_LatLon0.15_PT081H.grib2 2026-04-20 16:22 1.1M
20260420T12Z_MSC_GDPS_DewPointDepression_IsbL-0850_LatLon0.15_PT081H.grib2 2026-04-20 16:22 1.1M
20260420T12Z_MSC_GDPS_DewPointDepression_IsbL-0875_LatLon0.15_PT081H.grib2 2026-04-20 16:22 1.1M
20260420T12Z_MSC_GDPS_DewPointDepression_IsbL-0900_LatLon0.15_PT081H.grib2 2026-04-20 16:22 1.0M
20260420T12Z_MSC_GDPS_DewPointDepression_IsbL-0925_LatLon0.15_PT081H.grib2 2026-04-20 16:22 1.0M
20260420T12Z_MSC_GDPS_DewPointDepression_IsbL-0950_LatLon0.15_PT081H.grib2 2026-04-20 16:22 1.0M
20260420T12Z_MSC_GDPS_DewPointDepression_IsbL-0970_LatLon0.15_PT081H.grib2 2026-04-20 16:22 1.0M
20260420T12Z_MSC_GDPS_DewPointDepression_IsbL-0985_LatLon0.15_PT081H.grib2 2026-04-20 16:22 1.0M
20260420T12Z_MSC_GDPS_DewPointDepression_IsbL-1000_LatLon0.15_PT081H.grib2 2026-04-20 16:22 966K
20260420T12Z_MSC_GDPS_DewPointDepression_IsbL-1015_LatLon0.15_PT081H.grib2 2026-04-20 16:22 907K
20260420T12Z_MSC_GDPS_DewPoint_AGL-2m_LatLon0.15_PT081H.grib2 2026-04-20 16:22 607K
20260420T12Z_MSC_GDPS_DownwardLongwaveRadiationFlux-Accum_Sfc_LatLon0.15_PT081H.grib2 2026-04-20 16:22 684K
20260420T12Z_MSC_GDPS_DownwardShortwaveRadiationFlux-Accum_NTAtm_LatLon0.15_PT081H.grib2 2026-04-20 16:22 278K
20260420T12Z_MSC_GDPS_DownwardShortwaveRadiationFlux-Accum_Sfc_LatLon0.15_PT081H.grib2 2026-04-20 16:22 907K
20260420T12Z_MSC_GDPS_FreezingRain-Accum1h_Sfc_LatLon0.15_PT081H.grib2 2026-04-20 16:22 41K
20260420T12Z_MSC_GDPS_FreezingRain-Accum3h_Sfc_LatLon0.15_PT081H.grib2 2026-04-20 16:22 49K
20260420T12Z_MSC_GDPS_FreezingRain-Accum_Sfc_LatLon0.15_PT081H.grib2 2026-04-20 16:22 234K
20260420T12Z_MSC_GDPS_GeopotentialHeight_IsbL-0001_LatLon0.15_PT081H.grib2 2026-04-20 16:22 402K
20260420T12Z_MSC_GDPS_GeopotentialHeight_IsbL-0005_LatLon0.15_PT081H.grib2 2026-04-20 16:22 499K
20260420T12Z_MSC_GDPS_GeopotentialHeight_IsbL-0010_LatLon0.15_PT081H.grib2 2026-04-20 16:22 422K
20260420T12Z_MSC_GDPS_GeopotentialHeight_IsbL-0020_LatLon0.15_PT081H.grib2 2026-04-20 16:22 564K
20260420T12Z_MSC_GDPS_GeopotentialHeight_IsbL-0030_LatLon0.15_PT081H.grib2 2026-04-20 16:22 570K
20260420T12Z_MSC_GDPS_GeopotentialHeight_IsbL-0050_LatLon0.15_PT081H.grib2 2026-04-20 16:22 574K
20260420T12Z_MSC_GDPS_GeopotentialHeight_IsbL-0100_LatLon0.15_PT081H.grib2 2026-04-20 16:22 612K
20260420T12Z_MSC_GDPS_GeopotentialHeight_IsbL-0150_LatLon0.15_PT081H.grib2 2026-04-20 16:22 631K
20260420T12Z_MSC_GDPS_GeopotentialHeight_IsbL-0175_LatLon0.15_PT081H.grib2 2026-04-20 16:22 634K
20260420T12Z_MSC_GDPS_GeopotentialHeight_IsbL-0200_LatLon0.15_PT081H.grib2 2026-04-20 16:22 640K
20260420T12Z_MSC_GDPS_GeopotentialHeight_IsbL-0225_LatLon0.15_PT081H.grib2 2026-04-20 16:22 647K
20260420T12Z_MSC_GDPS_GeopotentialHeight_IsbL-0250_LatLon0.15_PT081H.grib2 2026-04-20 16:22 648K
20260420T12Z_MSC_GDPS_GeopotentialHeight_IsbL-0275_LatLon0.15_PT081H.grib2 2026-04-20 16:22 649K
20260420T12Z_MSC_GDPS_GeopotentialHeight_IsbL-0300_LatLon0.15_PT081H.grib2 2026-04-20 16:22 648K
20260420T12Z_MSC_GDPS_GeopotentialHeight_IsbL-0350_LatLon0.15_PT081H.grib2 2026-04-20 16:22 637K
20260420T12Z_MSC_GDPS_GeopotentialHeight_IsbL-0400_LatLon0.15_PT081H.grib2 2026-04-20 16:22 630K
20260420T12Z_MSC_GDPS_GeopotentialHeight_IsbL-0450_LatLon0.15_PT081H.grib2 2026-04-20 16:22 621K
20260420T12Z_MSC_GDPS_GeopotentialHeight_IsbL-0500_LatLon0.15_PT081H.grib2 2026-04-20 16:22 539K
20260420T12Z_MSC_GDPS_GeopotentialHeight_IsbL-0550_LatLon0.15_PT081H.grib2 2026-04-20 16:22 534K
20260420T12Z_MSC_GDPS_GeopotentialHeight_IsbL-0600_LatLon0.15_PT081H.grib2 2026-04-20 16:22 694K
20260420T12Z_MSC_GDPS_GeopotentialHeight_IsbL-0650_LatLon0.15_PT081H.grib2 2026-04-20 16:22 692K
20260420T12Z_MSC_GDPS_GeopotentialHeight_IsbL-0700_LatLon0.15_PT081H.grib2 2026-04-20 16:22 691K
20260420T12Z_MSC_GDPS_GeopotentialHeight_IsbL-0750_LatLon0.15_PT081H.grib2 2026-04-20 16:22 689K
20260420T12Z_MSC_GDPS_GeopotentialHeight_IsbL-0800_LatLon0.15_PT081H.grib2 2026-04-20 16:22 702K
20260420T12Z_MSC_GDPS_GeopotentialHeight_IsbL-0850_LatLon0.15_PT081H.grib2 2026-04-20 16:22 715K
20260420T12Z_MSC_GDPS_GeopotentialHeight_IsbL-0875_LatLon0.15_PT081H.grib2 2026-04-20 16:22 715K
20260420T12Z_MSC_GDPS_GeopotentialHeight_IsbL-0900_LatLon0.15_PT081H.grib2 2026-04-20 16:22 726K
20260420T12Z_MSC_GDPS_GeopotentialHeight_IsbL-0925_LatLon0.15_PT081H.grib2 2026-04-20 16:22 734K
20260420T12Z_MSC_GDPS_GeopotentialHeight_IsbL-0950_LatLon0.15_PT081H.grib2 2026-04-20 16:22 742K
20260420T12Z_MSC_GDPS_GeopotentialHeight_IsbL-0970_LatLon0.15_PT081H.grib2 2026-04-20 16:22 751K
20260420T12Z_MSC_GDPS_GeopotentialHeight_IsbL-0985_LatLon0.15_PT081H.grib2 2026-04-20 16:22 768K
20260420T12Z_MSC_GDPS_GeopotentialHeight_IsbL-1000_LatLon0.15_PT081H.grib2 2026-04-20 16:22 789K
20260420T12Z_MSC_GDPS_GeopotentialHeight_IsbL-1015_LatLon0.15_PT081H.grib2 2026-04-20 16:22 812K
20260420T12Z_MSC_GDPS_Humidex_Sfc_LatLon0.15_PT081H.grib2 2026-04-20 16:22 5.3M
20260420T12Z_MSC_GDPS_IcePellets-Accum1h_Sfc_LatLon0.15_PT081H.grib2 2026-04-20 16:22 12K
20260420T12Z_MSC_GDPS_IcePellets-Accum3h_Sfc_LatLon0.15_PT081H.grib2 2026-04-20 16:22 15K
20260420T12Z_MSC_GDPS_IcePellets-Accum_Sfc_LatLon0.15_PT081H.grib2 2026-04-20 16:22 76K
20260420T12Z_MSC_GDPS_KIndex_Sfc_LatLon0.15_PT081H.grib2 2026-04-20 16:22 6.5M
20260420T12Z_MSC_GDPS_LatentHeatNetFlux_Sfc_LatLon0.15_PT081H.grib2 2026-04-20 16:22 667K
20260420T12Z_MSC_GDPS_LiftedIndex-MU-VT_IsbL-0500_LatLon0.15_PT081H.grib2 2026-04-20 16:22 5.4M
20260420T12Z_MSC_GDPS_NetLongwaveRadiationFlux-Accum_Sfc_LatLon0.15_PT081H.grib2 2026-04-20 16:22 1.0M
20260420T12Z_MSC_GDPS_NetShortwaveRadiationFlux-Accum_Sfc_LatLon0.15_PT081H.grib2 2026-04-20 16:22 899K
20260420T12Z_MSC_GDPS_O3MixingRatio_LatLon0.15_PT081H.grib2 2026-04-20 17:05 2.2M
20260420T12Z_MSC_GDPS_O3_EAtm_LatLon0.15_PT081H.grib2 2026-04-20 17:05 2.5M
20260420T12Z_MSC_GDPS_PlanetaryBoundaryLayerHeight_Sfc_LatLon0.15_PT081H.grib2 2026-04-20 16:22 2.4M
20260420T12Z_MSC_GDPS_Precip-Accum1h_Sfc_LatLon0.15_PT081H.grib2 2026-04-20 16:22 3.2M
20260420T12Z_MSC_GDPS_Precip-Accum3h_Sfc_LatLon0.15_PT081H.grib2 2026-04-20 16:22 3.5M
20260420T12Z_MSC_GDPS_Precip-Accum_Sfc_LatLon0.15_PT081H.grib2 2026-04-20 16:22 4.9M
20260420T12Z_MSC_GDPS_PrecipRate_Sfc_LatLon0.15_PT081H.grib2 2026-04-20 16:22 3.0M
20260420T12Z_MSC_GDPS_PrecipType-Instant_Sfc_LatLon0.15_PT081H.grib2 2026-04-20 16:22 1.5M
20260420T12Z_MSC_GDPS_Pressure_MSL_LatLon0.15_PT081H.grib2 2026-04-20 16:22 726K
20260420T12Z_MSC_GDPS_Pressure_PVU-1.5_LatLon0.15_PT081H.grib2 2026-04-20 16:22 5.8M
20260420T12Z_MSC_GDPS_Pressure_PVU-1_LatLon0.15_PT081H.grib2 2026-04-20 16:22 6.0M
20260420T12Z_MSC_GDPS_Pressure_PVU-2_LatLon0.15_PT081H.grib2 2026-04-20 16:22 5.6M
20260420T12Z_MSC_GDPS_Pressure_Sfc_LatLon0.15_PT081H.grib2 2026-04-20 16:22 1.1M
20260420T12Z_MSC_GDPS_RadiativeTemp_Sfc_LatLon0.15_PT081H.grib2 2026-04-20 16:22 658K
20260420T12Z_MSC_GDPS_Rain-Accum1h_Sfc_LatLon0.15_PT081H.grib2 2026-04-20 16:22 1.5M
20260420T12Z_MSC_GDPS_Rain-Accum3h_Sfc_LatLon0.15_PT081H.grib2 2026-04-20 16:22 1.7M
20260420T12Z_MSC_GDPS_Rain-Accum_Sfc_LatLon0.15_PT081H.grib2 2026-04-20 16:22 3.9M
20260420T12Z_MSC_GDPS_RelativeHumidity_AGL-2m_LatLon0.15_PT081H.grib2 2026-04-20 16:22 1.0M
20260420T12Z_MSC_GDPS_RelativeHumidity_IsbL-0010_LatLon0.15_PT081H.grib2 2026-04-20 16:22 257K
20260420T12Z_MSC_GDPS_RelativeHumidity_IsbL-0020_LatLon0.15_PT081H.grib2 2026-04-20 16:22 269K
20260420T12Z_MSC_GDPS_RelativeHumidity_IsbL-0030_LatLon0.15_PT081H.grib2 2026-04-20 16:22 421K
20260420T12Z_MSC_GDPS_RelativeHumidity_IsbL-0050_LatLon0.15_PT081H.grib2 2026-04-20 16:22 331K
20260420T12Z_MSC_GDPS_RelativeHumidity_IsbL-0100_LatLon0.15_PT081H.grib2 2026-04-20 16:22 502K
20260420T12Z_MSC_GDPS_RelativeHumidity_IsbL-0150_LatLon0.15_PT081H.grib2 2026-04-20 16:22 651K
20260420T12Z_MSC_GDPS_RelativeHumidity_IsbL-0175_LatLon0.15_PT081H.grib2 2026-04-20 16:22 596K
20260420T12Z_MSC_GDPS_RelativeHumidity_IsbL-0200_LatLon0.15_PT081H.grib2 2026-04-20 16:22 703K
20260420T12Z_MSC_GDPS_RelativeHumidity_IsbL-0225_LatLon0.15_PT081H.grib2 2026-04-20 16:22 794K
20260420T12Z_MSC_GDPS_RelativeHumidity_IsbL-0250_LatLon0.15_PT081H.grib2 2026-04-20 16:22 872K
20260420T12Z_MSC_GDPS_RelativeHumidity_IsbL-0275_LatLon0.15_PT081H.grib2 2026-04-20 16:22 888K
20260420T12Z_MSC_GDPS_RelativeHumidity_IsbL-0300_LatLon0.15_PT081H.grib2 2026-04-20 16:22 928K
20260420T12Z_MSC_GDPS_RelativeHumidity_IsbL-0350_LatLon0.15_PT081H.grib2 2026-04-20 16:22 951K
20260420T12Z_MSC_GDPS_RelativeHumidity_IsbL-0400_LatLon0.15_PT081H.grib2 2026-04-20 16:22 1.0M
20260420T12Z_MSC_GDPS_RelativeHumidity_IsbL-0450_LatLon0.15_PT081H.grib2 2026-04-20 16:22 1.0M
20260420T12Z_MSC_GDPS_RelativeHumidity_IsbL-0500_LatLon0.15_PT081H.grib2 2026-04-20 16:22 1.0M
20260420T12Z_MSC_GDPS_RelativeHumidity_IsbL-0550_LatLon0.15_PT081H.grib2 2026-04-20 16:22 1.0M
20260420T12Z_MSC_GDPS_RelativeHumidity_IsbL-0600_LatLon0.15_PT081H.grib2 2026-04-20 16:22 1.0M
20260420T12Z_MSC_GDPS_RelativeHumidity_IsbL-0650_LatLon0.15_PT081H.grib2 2026-04-20 16:22 1.1M
20260420T12Z_MSC_GDPS_RelativeHumidity_IsbL-0700_LatLon0.15_PT081H.grib2 2026-04-20 16:22 1.1M
20260420T12Z_MSC_GDPS_RelativeHumidity_IsbL-0750_LatLon0.15_PT081H.grib2 2026-04-20 16:22 1.2M
20260420T12Z_MSC_GDPS_RelativeHumidity_IsbL-0800_LatLon0.15_PT081H.grib2 2026-04-20 16:22 1.2M
20260420T12Z_MSC_GDPS_RelativeHumidity_IsbL-0850_LatLon0.15_PT081H.grib2 2026-04-20 16:22 1.3M
20260420T12Z_MSC_GDPS_RelativeHumidity_IsbL-0875_LatLon0.15_PT081H.grib2 2026-04-20 16:22 1.3M
20260420T12Z_MSC_GDPS_RelativeHumidity_IsbL-0900_LatLon0.15_PT081H.grib2 2026-04-20 16:22 1.3M
20260420T12Z_MSC_GDPS_RelativeHumidity_IsbL-0925_LatLon0.15_PT081H.grib2 2026-04-20 16:22 1.2M
20260420T12Z_MSC_GDPS_RelativeHumidity_IsbL-0950_LatLon0.15_PT081H.grib2 2026-04-20 16:22 1.2M
20260420T12Z_MSC_GDPS_RelativeHumidity_IsbL-0970_LatLon0.15_PT081H.grib2 2026-04-20 16:22 1.2M
20260420T12Z_MSC_GDPS_RelativeHumidity_IsbL-0985_LatLon0.15_PT081H.grib2 2026-04-20 16:22 1.1M
20260420T12Z_MSC_GDPS_RelativeHumidity_IsbL-1000_LatLon0.15_PT081H.grib2 2026-04-20 16:22 1.1M
20260420T12Z_MSC_GDPS_RelativeHumidity_IsbL-1015_LatLon0.15_PT081H.grib2 2026-04-20 16:22 1.0M
20260420T12Z_MSC_GDPS_RelativeVorticity_IsbL-0200_LatLon0.15_PT081H.grib2 2026-04-20 16:22 1.5M
20260420T12Z_MSC_GDPS_RelativeVorticity_IsbL-0250_LatLon0.15_PT081H.grib2 2026-04-20 16:22 1.6M
20260420T12Z_MSC_GDPS_RelativeVorticity_IsbL-0500_LatLon0.15_PT081H.grib2 2026-04-20 16:22 1.5M
20260420T12Z_MSC_GDPS_RelativeVorticity_IsbL-0700_LatLon0.15_PT081H.grib2 2026-04-20 16:22 1.3M
20260420T12Z_MSC_GDPS_RelativeVorticity_IsbL-0850_LatLon0.15_PT081H.grib2 2026-04-20 16:22 1.6M
20260420T12Z_MSC_GDPS_Runoff-Accum_Sfc_LatLon0.15_PT081H.grib2 2026-04-20 16:22 138K
20260420T12Z_MSC_GDPS_SensibleHeatNetFlux_Sfc_LatLon0.15_PT081H.grib2 2026-04-20 16:22 445K
20260420T12Z_MSC_GDPS_ShowalterIndex_IsbL-0500_LatLon0.15_PT081H.grib2 2026-04-20 16:22 6.2M
20260420T12Z_MSC_GDPS_Snow-Accum1h_Sfc_LatLon0.15_PT081H.grib2 2026-04-20 16:22 1.1M
20260420T12Z_MSC_GDPS_Snow-Accum3h_Sfc_LatLon0.15_PT081H.grib2 2026-04-20 16:22 1.0M
20260420T12Z_MSC_GDPS_Snow-Accum_Sfc_LatLon0.15_PT081H.grib2 2026-04-20 16:22 1.8M
20260420T12Z_MSC_GDPS_SnowDensity_Sfc_LatLon0.15_PT081H.grib2 2026-04-20 16:22 269K
20260420T12Z_MSC_GDPS_SnowDepth_Sfc_LatLon0.15_PT081H.grib2 2026-04-20 16:22 1.8M
20260420T12Z_MSC_GDPS_SoilTemp_DBS-0to10cm_LatLon0.15_PT081H.grib2 2026-04-20 16:22 510K
20260420T12Z_MSC_GDPS_SoilTemp_Sfc_LatLon0.15_PT081H.grib2 2026-04-20 16:22 582K
20260420T12Z_MSC_GDPS_SoilVolumetricIceContent_Sfc_LatLon0.15_PT081H.grib2 2026-04-20 16:22 217K
20260420T12Z_MSC_GDPS_SoilVolumetricWaterContent_DBS-0to10cm_LatLon0.15_PT081H.grib2 2026-04-20 16:22 558K
20260420T12Z_MSC_GDPS_SoilVolumetricWaterContent_DBS-0to1cm_LatLon0.15_PT081H.grib2 2026-04-20 16:22 649K
20260420T12Z_MSC_GDPS_SpecificHumidity_AGL-120m_LatLon0.15_PT081H.grib2 2026-04-20 16:22 1.1M
20260420T12Z_MSC_GDPS_SpecificHumidity_AGL-2m_LatLon0.15_PT081H.grib2 2026-04-20 16:22 1.2M
20260420T12Z_MSC_GDPS_SpecificHumidity_AGL-40m_LatLon0.15_PT081H.grib2 2026-04-20 16:22 1.1M
20260420T12Z_MSC_GDPS_SpecificHumidity_AGL-80m_LatLon0.15_PT081H.grib2 2026-04-20 16:22 1.1M
20260420T12Z_MSC_GDPS_SpecificHumidity_IsbL-0001_LatLon0.15_PT081H.grib2 2026-04-20 16:22 1.2M
20260420T12Z_MSC_GDPS_SpecificHumidity_IsbL-0005_LatLon0.15_PT081H.grib2 2026-04-20 16:22 1.4M
20260420T12Z_MSC_GDPS_SpecificHumidity_IsbL-0010_LatLon0.15_PT081H.grib2 2026-04-20 16:22 1.3M
20260420T12Z_MSC_GDPS_SpecificHumidity_IsbL-0020_LatLon0.15_PT081H.grib2 2026-04-20 16:22 1.3M
20260420T12Z_MSC_GDPS_SpecificHumidity_IsbL-0030_LatLon0.15_PT081H.grib2 2026-04-20 16:22 1.6M
20260420T12Z_MSC_GDPS_SpecificHumidity_IsbL-0050_LatLon0.15_PT081H.grib2 2026-04-20 16:22 1.3M
20260420T12Z_MSC_GDPS_SpecificHumidity_IsbL-0100_LatLon0.15_PT081H.grib2 2026-04-20 16:22 1.3M
20260420T12Z_MSC_GDPS_SpecificHumidity_IsbL-0150_LatLon0.15_PT081H.grib2 2026-04-20 16:22 1.3M
20260420T12Z_MSC_GDPS_SpecificHumidity_IsbL-0175_LatLon0.15_PT081H.grib2 2026-04-20 16:22 1.3M
20260420T12Z_MSC_GDPS_SpecificHumidity_IsbL-0200_LatLon0.15_PT081H.grib2 2026-04-20 16:22 1.3M
20260420T12Z_MSC_GDPS_SpecificHumidity_IsbL-0225_LatLon0.15_PT081H.grib2 2026-04-20 16:22 1.3M
20260420T12Z_MSC_GDPS_SpecificHumidity_IsbL-0250_LatLon0.15_PT081H.grib2 2026-04-20 16:22 1.4M
20260420T12Z_MSC_GDPS_SpecificHumidity_IsbL-0275_LatLon0.15_PT081H.grib2 2026-04-20 16:22 1.3M
20260420T12Z_MSC_GDPS_SpecificHumidity_IsbL-0300_LatLon0.15_PT081H.grib2 2026-04-20 16:22 1.2M
20260420T12Z_MSC_GDPS_SpecificHumidity_IsbL-0350_LatLon0.15_PT081H.grib2 2026-04-20 16:22 1.2M
20260420T12Z_MSC_GDPS_SpecificHumidity_IsbL-0400_LatLon0.15_PT081H.grib2 2026-04-20 16:22 1.5M
20260420T12Z_MSC_GDPS_SpecificHumidity_IsbL-0450_LatLon0.15_PT081H.grib2 2026-04-20 16:22 1.6M
20260420T12Z_MSC_GDPS_SpecificHumidity_IsbL-0500_LatLon0.15_PT081H.grib2 2026-04-20 16:22 1.4M
20260420T12Z_MSC_GDPS_SpecificHumidity_IsbL-0550_LatLon0.15_PT081H.grib2 2026-04-20 16:22 1.6M
20260420T12Z_MSC_GDPS_SpecificHumidity_IsbL-0600_LatLon0.15_PT081H.grib2 2026-04-20 16:22 1.7M
20260420T12Z_MSC_GDPS_SpecificHumidity_IsbL-0650_LatLon0.15_PT081H.grib2 2026-04-20 16:22 1.5M
20260420T12Z_MSC_GDPS_SpecificHumidity_IsbL-0700_LatLon0.15_PT081H.grib2 2026-04-20 16:22 1.6M
20260420T12Z_MSC_GDPS_SpecificHumidity_IsbL-0750_LatLon0.15_PT081H.grib2 2026-04-20 16:22 1.7M
20260420T12Z_MSC_GDPS_SpecificHumidity_IsbL-0800_LatLon0.15_PT081H.grib2 2026-04-20 16:22 1.8M
20260420T12Z_MSC_GDPS_SpecificHumidity_IsbL-0850_LatLon0.15_PT081H.grib2 2026-04-20 16:22 1.9M
20260420T12Z_MSC_GDPS_SpecificHumidity_IsbL-0875_LatLon0.15_PT081H.grib2 2026-04-20 16:22 1.9M
20260420T12Z_MSC_GDPS_SpecificHumidity_IsbL-0900_LatLon0.15_PT081H.grib2 2026-04-20 16:22 1.9M
20260420T12Z_MSC_GDPS_SpecificHumidity_IsbL-0925_LatLon0.15_PT081H.grib2 2026-04-20 16:22 1.9M
20260420T12Z_MSC_GDPS_SpecificHumidity_IsbL-0950_LatLon0.15_PT081H.grib2 2026-04-20 16:22 1.5M
20260420T12Z_MSC_GDPS_SpecificHumidity_IsbL-0970_LatLon0.15_PT081H.grib2 2026-04-20 16:22 1.5M
20260420T12Z_MSC_GDPS_SpecificHumidity_IsbL-0985_LatLon0.15_PT081H.grib2 2026-04-20 16:22 1.5M
20260420T12Z_MSC_GDPS_SpecificHumidity_IsbL-1000_LatLon0.15_PT081H.grib2 2026-04-20 16:22 1.5M
20260420T12Z_MSC_GDPS_SpecificHumidity_IsbL-1015_LatLon0.15_PT081H.grib2 2026-04-20 16:22 1.4M
20260420T12Z_MSC_GDPS_SpecificHumidity_Sfc_LatLon0.15_PT081H.grib2 2026-04-20 16:22 631K
20260420T12Z_MSC_GDPS_Thickness_IsbL-0850to0700_LatLon0.15_PT081H.grib2 2026-04-20 16:22 466K
20260420T12Z_MSC_GDPS_Thickness_IsbL-1000to0500_LatLon0.15_PT081H.grib2 2026-04-20 16:22 376K
20260420T12Z_MSC_GDPS_Thickness_IsbL-1000to0850_LatLon0.15_PT081H.grib2 2026-04-20 16:22 486K
20260420T12Z_MSC_GDPS_TotalCloudCover_Sfc_LatLon0.15_PT081H.grib2 2026-04-20 16:22 830K
20260420T12Z_MSC_GDPS_TotalTotalsIndex_Sfc_LatLon0.15_PT081H.grib2 2026-04-20 16:22 6.2M
20260420T12Z_MSC_GDPS_UVIndex-ClearSky_Sfc_LatLon0.15_PT081H.grib2 2026-04-20 17:05 1.0M
20260420T12Z_MSC_GDPS_UVIndex_Sfc_LatLon0.15_PT081H.grib2 2026-04-20 17:05 1.5M
20260420T12Z_MSC_GDPS_UpwardLongwaveRadiationFlux_NTAtm_LatLon0.15_PT081H.grib2 2026-04-20 16:22 835K
20260420T12Z_MSC_GDPS_VerticalVelocity_IsbL-0200_LatLon0.15_PT081H.grib2 2026-04-20 16:22 1.0M
20260420T12Z_MSC_GDPS_VerticalVelocity_IsbL-0250_LatLon0.15_PT081H.grib2 2026-04-20 16:22 1.1M
20260420T12Z_MSC_GDPS_VerticalVelocity_IsbL-0500_LatLon0.15_PT081H.grib2 2026-04-20 16:22 1.0M
20260420T12Z_MSC_GDPS_VerticalVelocity_IsbL-0600_LatLon0.15_PT081H.grib2 2026-04-20 16:22 1.1M
20260420T12Z_MSC_GDPS_VerticalVelocity_IsbL-0700_LatLon0.15_PT081H.grib2 2026-04-20 16:22 1.1M
20260420T12Z_MSC_GDPS_VerticalVelocity_IsbL-0850_LatLon0.15_PT081H.grib2 2026-04-20 16:22 1.3M
20260420T12Z_MSC_GDPS_WindChill_Sfc_LatLon0.15_PT081H.grib2 2026-04-20 16:22 5.3M
20260420T12Z_MSC_GDPS_WindDir_AGL-10m_LatLon0.15_PT081H.grib2 2026-04-20 16:22 1.3M
20260420T12Z_MSC_GDPS_WindDir_AGL-120m_LatLon0.15_PT081H.grib2 2026-04-20 16:22 1.3M
20260420T12Z_MSC_GDPS_WindDir_AGL-40m_LatLon0.15_PT081H.grib2 2026-04-20 16:22 1.4M
20260420T12Z_MSC_GDPS_WindDir_AGL-80m_LatLon0.15_PT081H.grib2 2026-04-20 16:22 1.4M
20260420T12Z_MSC_GDPS_WindDir_IsbL-0001_LatLon0.15_PT081H.grib2 2026-04-20 16:22 651K
20260420T12Z_MSC_GDPS_WindDir_IsbL-0005_LatLon0.15_PT081H.grib2 2026-04-20 16:22 813K
20260420T12Z_MSC_GDPS_WindDir_IsbL-0010_LatLon0.15_PT081H.grib2 2026-04-20 16:22 865K
20260420T12Z_MSC_GDPS_WindDir_IsbL-0020_LatLon0.15_PT081H.grib2 2026-04-20 16:22 954K
20260420T12Z_MSC_GDPS_WindDir_IsbL-0030_LatLon0.15_PT081H.grib2 2026-04-20 16:22 921K
20260420T12Z_MSC_GDPS_WindDir_IsbL-0050_LatLon0.15_PT081H.grib2 2026-04-20 16:22 952K
20260420T12Z_MSC_GDPS_WindDir_IsbL-0100_LatLon0.15_PT081H.grib2 2026-04-20 16:22 1.0M
20260420T12Z_MSC_GDPS_WindDir_IsbL-0150_LatLon0.15_PT081H.grib2 2026-04-20 16:22 1.0M
20260420T12Z_MSC_GDPS_WindDir_IsbL-0175_LatLon0.15_PT081H.grib2 2026-04-20 16:22 1.1M
20260420T12Z_MSC_GDPS_WindDir_IsbL-0200_LatLon0.15_PT081H.grib2 2026-04-20 16:22 1.1M
20260420T12Z_MSC_GDPS_WindDir_IsbL-0225_LatLon0.15_PT081H.grib2 2026-04-20 16:22 1.1M
20260420T12Z_MSC_GDPS_WindDir_IsbL-0250_LatLon0.15_PT081H.grib2 2026-04-20 16:22 1.1M
20260420T12Z_MSC_GDPS_WindDir_IsbL-0275_LatLon0.15_PT081H.grib2 2026-04-20 16:22 1.2M
20260420T12Z_MSC_GDPS_WindDir_IsbL-0300_LatLon0.15_PT081H.grib2 2026-04-20 16:22 1.1M
20260420T12Z_MSC_GDPS_WindDir_IsbL-0350_LatLon0.15_PT081H.grib2 2026-04-20 16:22 1.2M
20260420T12Z_MSC_GDPS_WindDir_IsbL-0400_LatLon0.15_PT081H.grib2 2026-04-20 16:22 1.3M
20260420T12Z_MSC_GDPS_WindDir_IsbL-0450_LatLon0.15_PT081H.grib2 2026-04-20 16:22 1.3M
20260420T12Z_MSC_GDPS_WindDir_IsbL-0500_LatLon0.15_PT081H.grib2 2026-04-20 16:22 1.4M
20260420T12Z_MSC_GDPS_WindDir_IsbL-0550_LatLon0.15_PT081H.grib2 2026-04-20 16:22 1.4M
20260420T12Z_MSC_GDPS_WindDir_IsbL-0600_LatLon0.15_PT081H.grib2 2026-04-20 16:22 1.5M
20260420T12Z_MSC_GDPS_WindDir_IsbL-0650_LatLon0.15_PT081H.grib2 2026-04-20 16:22 1.5M
20260420T12Z_MSC_GDPS_WindDir_IsbL-0700_LatLon0.15_PT081H.grib2 2026-04-20 16:22 1.6M
20260420T12Z_MSC_GDPS_WindDir_IsbL-0750_LatLon0.15_PT081H.grib2 2026-04-20 16:22 1.7M
20260420T12Z_MSC_GDPS_WindDir_IsbL-0800_LatLon0.15_PT081H.grib2 2026-04-20 16:22 1.8M
20260420T12Z_MSC_GDPS_WindDir_IsbL-0850_LatLon0.15_PT081H.grib2 2026-04-20 16:22 1.9M
20260420T12Z_MSC_GDPS_WindDir_IsbL-0875_LatLon0.15_PT081H.grib2 2026-04-20 16:22 1.9M
20260420T12Z_MSC_GDPS_WindDir_IsbL-0900_LatLon0.15_PT081H.grib2 2026-04-20 16:22 2.0M
20260420T12Z_MSC_GDPS_WindDir_IsbL-0925_LatLon0.15_PT081H.grib2 2026-04-20 16:22 2.0M
20260420T12Z_MSC_GDPS_WindDir_IsbL-0950_LatLon0.15_PT081H.grib2 2026-04-20 16:22 2.0M
20260420T12Z_MSC_GDPS_WindDir_IsbL-0970_LatLon0.15_PT081H.grib2 2026-04-20 16:22 2.0M
20260420T12Z_MSC_GDPS_WindDir_IsbL-0985_LatLon0.15_PT081H.grib2 2026-04-20 16:22 2.0M
20260420T12Z_MSC_GDPS_WindDir_IsbL-1000_LatLon0.15_PT081H.grib2 2026-04-20 16:22 2.1M
20260420T12Z_MSC_GDPS_WindDir_IsbL-1015_LatLon0.15_PT081H.grib2 2026-04-20 16:22 2.0M
20260420T12Z_MSC_GDPS_WindGust-Max_AGL-10m_LatLon0.15_PT081H.grib2 2026-04-20 16:22 2.2M
20260420T12Z_MSC_GDPS_WindGust-Min_AGL-10m_LatLon0.15_PT081H.grib2 2026-04-20 16:22 2.2M
20260420T12Z_MSC_GDPS_WindGust_AGL-10m_LatLon0.15_PT081H.grib2 2026-04-20 16:22 2.2M
20260420T12Z_MSC_GDPS_WindSpeed_AGL-10m_LatLon0.15_PT081H.grib2 2026-04-20 16:22 1.1M
20260420T12Z_MSC_GDPS_WindSpeed_AGL-120m_LatLon0.15_PT081H.grib2 2026-04-20 16:22 1.3M
20260420T12Z_MSC_GDPS_WindSpeed_AGL-40m_LatLon0.15_PT081H.grib2 2026-04-20 16:22 1.2M
20260420T12Z_MSC_GDPS_WindSpeed_AGL-80m_LatLon0.15_PT081H.grib2 2026-04-20 16:22 1.2M
20260420T12Z_MSC_GDPS_WindSpeed_IsbL-0001_LatLon0.15_PT081H.grib2 2026-04-20 16:22 638K
20260420T12Z_MSC_GDPS_WindSpeed_IsbL-0005_LatLon0.15_PT081H.grib2 2026-04-20 16:22 606K
20260420T12Z_MSC_GDPS_WindSpeed_IsbL-0010_LatLon0.15_PT081H.grib2 2026-04-20 16:22 630K
20260420T12Z_MSC_GDPS_WindSpeed_IsbL-0020_LatLon0.15_PT081H.grib2 2026-04-20 16:22 859K
20260420T12Z_MSC_GDPS_WindSpeed_IsbL-0030_LatLon0.15_PT081H.grib2 2026-04-20 16:22 934K
20260420T12Z_MSC_GDPS_WindSpeed_IsbL-0050_LatLon0.15_PT081H.grib2 2026-04-20 16:22 1.0M
20260420T12Z_MSC_GDPS_WindSpeed_IsbL-0100_LatLon0.15_PT081H.grib2 2026-04-20 16:22 1.1M
20260420T12Z_MSC_GDPS_WindSpeed_IsbL-0150_LatLon0.15_PT081H.grib2 2026-04-20 16:22 950K
20260420T12Z_MSC_GDPS_WindSpeed_IsbL-0175_LatLon0.15_PT081H.grib2 2026-04-20 16:22 1.0M
20260420T12Z_MSC_GDPS_WindSpeed_IsbL-0200_LatLon0.15_PT081H.grib2 2026-04-20 16:22 1.1M
20260420T12Z_MSC_GDPS_WindSpeed_IsbL-0225_LatLon0.15_PT081H.grib2 2026-04-20 16:22 1.1M
20260420T12Z_MSC_GDPS_WindSpeed_IsbL-0250_LatLon0.15_PT081H.grib2 2026-04-20 16:22 1.1M
20260420T12Z_MSC_GDPS_WindSpeed_IsbL-0275_LatLon0.15_PT081H.grib2 2026-04-20 16:22 1.1M
20260420T12Z_MSC_GDPS_WindSpeed_IsbL-0300_LatLon0.15_PT081H.grib2 2026-04-20 16:22 1.1M
20260420T12Z_MSC_GDPS_WindSpeed_IsbL-0350_LatLon0.15_PT081H.grib2 2026-04-20 16:22 1.1M
20260420T12Z_MSC_GDPS_WindSpeed_IsbL-0400_LatLon0.15_PT081H.grib2 2026-04-20 16:22 1.1M
20260420T12Z_MSC_GDPS_WindSpeed_IsbL-0450_LatLon0.15_PT081H.grib2 2026-04-20 16:22 1.1M
20260420T12Z_MSC_GDPS_WindSpeed_IsbL-0500_LatLon0.15_PT081H.grib2 2026-04-20 16:22 1.1M
20260420T12Z_MSC_GDPS_WindSpeed_IsbL-0550_LatLon0.15_PT081H.grib2 2026-04-20 16:22 1.1M
20260420T12Z_MSC_GDPS_WindSpeed_IsbL-0600_LatLon0.15_PT081H.grib2 2026-04-20 16:22 1.1M
20260420T12Z_MSC_GDPS_WindSpeed_IsbL-0650_LatLon0.15_PT081H.grib2 2026-04-20 16:22 1.2M
20260420T12Z_MSC_GDPS_WindSpeed_IsbL-0700_LatLon0.15_PT081H.grib2 2026-04-20 16:22 1.5M
20260420T12Z_MSC_GDPS_WindSpeed_IsbL-0750_LatLon0.15_PT081H.grib2 2026-04-20 16:22 1.5M
20260420T12Z_MSC_GDPS_WindSpeed_IsbL-0800_LatLon0.15_PT081H.grib2 2026-04-20 16:22 1.6M
20260420T12Z_MSC_GDPS_WindSpeed_IsbL-0850_LatLon0.15_PT081H.grib2 2026-04-20 16:22 1.7M
20260420T12Z_MSC_GDPS_WindSpeed_IsbL-0875_LatLon0.15_PT081H.grib2 2026-04-20 16:22 1.8M
20260420T12Z_MSC_GDPS_WindSpeed_IsbL-0900_LatLon0.15_PT081H.grib2 2026-04-20 16:22 1.9M
20260420T12Z_MSC_GDPS_WindSpeed_IsbL-0925_LatLon0.15_PT081H.grib2 2026-04-20 16:22 1.9M
20260420T12Z_MSC_GDPS_WindSpeed_IsbL-0950_LatLon0.15_PT081H.grib2 2026-04-20 16:22 1.9M
20260420T12Z_MSC_GDPS_WindSpeed_IsbL-0970_LatLon0.15_PT081H.grib2 2026-04-20 16:22 1.9M
20260420T12Z_MSC_GDPS_WindSpeed_IsbL-0985_LatLon0.15_PT081H.grib2 2026-04-20 16:22 1.8M
20260420T12Z_MSC_GDPS_WindSpeed_IsbL-1000_LatLon0.15_PT081H.grib2 2026-04-20 16:22 1.8M
20260420T12Z_MSC_GDPS_WindSpeed_IsbL-1015_LatLon0.15_PT081H.grib2 2026-04-20 16:22 1.8M
20260420T12Z_MSC_GDPS_WindU_AGL-10m_LatLon0.15_PT081H.grib2 2026-04-20 16:22 1.6M
20260420T12Z_MSC_GDPS_WindU_AGL-120m_LatLon0.15_PT081H.grib2 2026-04-20 16:22 1.0M
20260420T12Z_MSC_GDPS_WindU_AGL-40m_LatLon0.15_PT081H.grib2 2026-04-20 16:22 1.0M
20260420T12Z_MSC_GDPS_WindU_AGL-80m_LatLon0.15_PT081H.grib2 2026-04-20 16:22 1.0M
20260420T12Z_MSC_GDPS_WindU_IsbL-0001_LatLon0.15_PT081H.grib2 2026-04-20 16:22 642K
20260420T12Z_MSC_GDPS_WindU_IsbL-0005_LatLon0.15_PT081H.grib2 2026-04-20 16:22 683K
20260420T12Z_MSC_GDPS_WindU_IsbL-0010_LatLon0.15_PT081H.grib2 2026-04-20 16:22 700K
20260420T12Z_MSC_GDPS_WindU_IsbL-0020_LatLon0.15_PT081H.grib2 2026-04-20 16:22 656K
20260420T12Z_MSC_GDPS_WindU_IsbL-0030_LatLon0.15_PT081H.grib2 2026-04-20 16:22 732K
20260420T12Z_MSC_GDPS_WindU_IsbL-0050_LatLon0.15_PT081H.grib2 2026-04-20 16:22 701K
20260420T12Z_MSC_GDPS_WindU_IsbL-0100_LatLon0.15_PT081H.grib2 2026-04-20 16:22 923K
20260420T12Z_MSC_GDPS_WindU_IsbL-0150_LatLon0.15_PT081H.grib2 2026-04-20 16:22 1.0M
20260420T12Z_MSC_GDPS_WindU_IsbL-0175_LatLon0.15_PT081H.grib2 2026-04-20 16:22 1.0M
20260420T12Z_MSC_GDPS_WindU_IsbL-0200_LatLon0.15_PT081H.grib2 2026-04-20 16:22 1.1M
20260420T12Z_MSC_GDPS_WindU_IsbL-0225_LatLon0.15_PT081H.grib2 2026-04-20 16:22 862K
20260420T12Z_MSC_GDPS_WindU_IsbL-0250_LatLon0.15_PT081H.grib2 2026-04-20 16:22 863K
20260420T12Z_MSC_GDPS_WindU_IsbL-0275_LatLon0.15_PT081H.grib2 2026-04-20 16:22 885K
20260420T12Z_MSC_GDPS_WindU_IsbL-0300_LatLon0.15_PT081H.grib2 2026-04-20 16:22 874K
20260420T12Z_MSC_GDPS_WindU_IsbL-0350_LatLon0.15_PT081H.grib2 2026-04-20 16:22 887K
20260420T12Z_MSC_GDPS_WindU_IsbL-0400_LatLon0.15_PT081H.grib2 2026-04-20 16:22 892K
20260420T12Z_MSC_GDPS_WindU_IsbL-0450_LatLon0.15_PT081H.grib2 2026-04-20 16:22 1.1M
20260420T12Z_MSC_GDPS_WindU_IsbL-0500_LatLon0.15_PT081H.grib2 2026-04-20 16:22 1.1M
20260420T12Z_MSC_GDPS_WindU_IsbL-0550_LatLon0.15_PT081H.grib2 2026-04-20 16:22 1.1M
20260420T12Z_MSC_GDPS_WindU_IsbL-0600_LatLon0.15_PT081H.grib2 2026-04-20 16:22 1.1M
20260420T12Z_MSC_GDPS_WindU_IsbL-0650_LatLon0.15_PT081H.grib2 2026-04-20 16:22 1.2M
20260420T12Z_MSC_GDPS_WindU_IsbL-0700_LatLon0.15_PT081H.grib2 2026-04-20 16:22 1.2M
20260420T12Z_MSC_GDPS_WindU_IsbL-0750_LatLon0.15_PT081H.grib2 2026-04-20 16:22 1.3M
20260420T12Z_MSC_GDPS_WindU_IsbL-0800_LatLon0.15_PT081H.grib2 2026-04-20 16:22 1.3M
20260420T12Z_MSC_GDPS_WindU_IsbL-0850_LatLon0.15_PT081H.grib2 2026-04-20 16:22 1.4M
20260420T12Z_MSC_GDPS_WindU_IsbL-0875_LatLon0.15_PT081H.grib2 2026-04-20 16:22 1.4M
20260420T12Z_MSC_GDPS_WindU_IsbL-0900_LatLon0.15_PT081H.grib2 2026-04-20 16:22 1.5M
20260420T12Z_MSC_GDPS_WindU_IsbL-0925_LatLon0.15_PT081H.grib2 2026-04-20 16:22 1.4M
20260420T12Z_MSC_GDPS_WindU_IsbL-0950_LatLon0.15_PT081H.grib2 2026-04-20 16:22 1.4M
20260420T12Z_MSC_GDPS_WindU_IsbL-0970_LatLon0.15_PT081H.grib2 2026-04-20 16:22 1.4M
20260420T12Z_MSC_GDPS_WindU_IsbL-0985_LatLon0.15_PT081H.grib2 2026-04-20 16:22 1.4M
20260420T12Z_MSC_GDPS_WindU_IsbL-1000_LatLon0.15_PT081H.grib2 2026-04-20 16:22 1.7M
20260420T12Z_MSC_GDPS_WindU_IsbL-1015_LatLon0.15_PT081H.grib2 2026-04-20 16:22 1.6M
20260420T12Z_MSC_GDPS_WindV_AGL-10m_LatLon0.15_PT081H.grib2 2026-04-20 16:22 1.3M
20260420T12Z_MSC_GDPS_WindV_AGL-120m_LatLon0.15_PT081H.grib2 2026-04-20 16:22 1.0M
20260420T12Z_MSC_GDPS_WindV_AGL-40m_LatLon0.15_PT081H.grib2 2026-04-20 16:22 1.0M
20260420T12Z_MSC_GDPS_WindV_AGL-80m_LatLon0.15_PT081H.grib2 2026-04-20 16:22 1.0M
20260420T12Z_MSC_GDPS_WindV_IsbL-0001_LatLon0.15_PT081H.grib2 2026-04-20 16:22 766K
20260420T12Z_MSC_GDPS_WindV_IsbL-0005_LatLon0.15_PT081H.grib2 2026-04-20 16:22 848K
20260420T12Z_MSC_GDPS_WindV_IsbL-0010_LatLon0.15_PT081H.grib2 2026-04-20 16:22 885K
20260420T12Z_MSC_GDPS_WindV_IsbL-0020_LatLon0.15_PT081H.grib2 2026-04-20 16:22 847K
20260420T12Z_MSC_GDPS_WindV_IsbL-0030_LatLon0.15_PT081H.grib2 2026-04-20 16:22 844K
20260420T12Z_MSC_GDPS_WindV_IsbL-0050_LatLon0.15_PT081H.grib2 2026-04-20 16:22 906K
20260420T12Z_MSC_GDPS_WindV_IsbL-0100_LatLon0.15_PT081H.grib2 2026-04-20 16:22 1.1M
20260420T12Z_MSC_GDPS_WindV_IsbL-0150_LatLon0.15_PT081H.grib2 2026-04-20 16:22 1.0M
20260420T12Z_MSC_GDPS_WindV_IsbL-0175_LatLon0.15_PT081H.grib2 2026-04-20 16:22 1.0M
20260420T12Z_MSC_GDPS_WindV_IsbL-0200_LatLon0.15_PT081H.grib2 2026-04-20 16:22 1.1M
20260420T12Z_MSC_GDPS_WindV_IsbL-0225_LatLon0.15_PT081H.grib2 2026-04-20 16:22 860K
20260420T12Z_MSC_GDPS_WindV_IsbL-0250_LatLon0.15_PT081H.grib2 2026-04-20 16:22 858K
20260420T12Z_MSC_GDPS_WindV_IsbL-0275_LatLon0.15_PT081H.grib2 2026-04-20 16:22 879K
20260420T12Z_MSC_GDPS_WindV_IsbL-0300_LatLon0.15_PT081H.grib2 2026-04-20 16:22 867K
20260420T12Z_MSC_GDPS_WindV_IsbL-0350_LatLon0.15_PT081H.grib2 2026-04-20 16:22 878K
20260420T12Z_MSC_GDPS_WindV_IsbL-0400_LatLon0.15_PT081H.grib2 2026-04-20 16:22 880K
20260420T12Z_MSC_GDPS_WindV_IsbL-0450_LatLon0.15_PT081H.grib2 2026-04-20 16:22 885K
20260420T12Z_MSC_GDPS_WindV_IsbL-0500_LatLon0.15_PT081H.grib2 2026-04-20 16:22 1.1M
20260420T12Z_MSC_GDPS_WindV_IsbL-0550_LatLon0.15_PT081H.grib2 2026-04-20 16:22 1.1M
20260420T12Z_MSC_GDPS_WindV_IsbL-0600_LatLon0.15_PT081H.grib2 2026-04-20 16:22 1.1M
20260420T12Z_MSC_GDPS_WindV_IsbL-0650_LatLon0.15_PT081H.grib2 2026-04-20 16:22 1.2M
20260420T12Z_MSC_GDPS_WindV_IsbL-0700_LatLon0.15_PT081H.grib2 2026-04-20 16:22 1.2M
20260420T12Z_MSC_GDPS_WindV_IsbL-0750_LatLon0.15_PT081H.grib2 2026-04-20 16:22 1.2M
20260420T12Z_MSC_GDPS_WindV_IsbL-0800_LatLon0.15_PT081H.grib2 2026-04-20 16:22 1.3M
20260420T12Z_MSC_GDPS_WindV_IsbL-0850_LatLon0.15_PT081H.grib2 2026-04-20 16:22 1.4M
20260420T12Z_MSC_GDPS_WindV_IsbL-0875_LatLon0.15_PT081H.grib2 2026-04-20 16:22 1.4M
20260420T12Z_MSC_GDPS_WindV_IsbL-0900_LatLon0.15_PT081H.grib2 2026-04-20 16:22 1.5M
20260420T12Z_MSC_GDPS_WindV_IsbL-0925_LatLon0.15_PT081H.grib2 2026-04-20 16:22 1.5M
20260420T12Z_MSC_GDPS_WindV_IsbL-0950_LatLon0.15_PT081H.grib2 2026-04-20 16:22 1.4M
20260420T12Z_MSC_GDPS_WindV_IsbL-0970_LatLon0.15_PT081H.grib2 2026-04-20 16:22 1.4M
20260420T12Z_MSC_GDPS_WindV_IsbL-0985_LatLon0.15_PT081H.grib2 2026-04-20 16:22 1.4M
20260420T12Z_MSC_GDPS_WindV_IsbL-1000_LatLon0.15_PT081H.grib2 2026-04-20 16:22 1.4M
20260420T12Z_MSC_GDPS_WindV_IsbL-1015_LatLon0.15_PT081H.grib2 2026-04-20 16:22 1.3M